This is the latest recevied weather packets stored in our database for station/object IU7LMH-13. If no packets are shown the sender has not sent any weather packets the latest 10 day(s).
| Time | Temp. | Humidity | Pressure | Rain* | Wind** | Luminosity | Snow |
|---|---|---|---|---|---|---|---|
| 1777526441 | 15.56° C | 72% | 1016.5 hPa | 0 mm | - | - | - |
| 1777526318 | 16.11° C | 71% | 1016.4 hPa | 0 mm | - | - | - |
| 1777525596 | 15.56° C | 66% | 1016.2 hPa | 0 mm | - | - | - |
| 1777525477 | 15.56° C | 66% | 1016.1 hPa | 0 mm | - | - | - |
| 1777524998 | 15° C | 70% | 1016 hPa | 0 mm | - | - | - |
| 1777524876 | 15° C | 73% | 1015.9 hPa | 0 mm | - | - | - |
| 1777524756 | 15° C | 74% | 1016 hPa | 0 mm | - | - | - |
| 1777524640 | 15° C | 74% | 1015.9 hPa | 0 mm | - | - | - |
| 1777524518 | 15° C | 74% | 1015.9 hPa | 0 mm | - | - | - |
| 1777523077 | 14.44° C | 81% | 1015.6 hPa | 0 mm | - | - | - |
| 1777521041 | 14.44° C | 79% | 1015.2 hPa | 0 mm | - | - | - |
| 1777520918 | 14.44° C | 79% | 1015.4 hPa | 0 mm | - | - | - |
| 1777520198 | 14.44° C | 81% | 1015.2 hPa | 0 mm | - | - | - |
| 1777519598 | 14.44° C | 81% | 1015 hPa | 0 mm | - | - | - |
| 1777518878 | 13.89° C | 82% | 1015 hPa | 0 mm | - | - | - |
| 1777518399 | 13.89° C | 83% | 1014.5 hPa | 0 mm | - | - | - |
| 1777516596 | 13.89° C | 83% | 1014.7 hPa | 0 mm | - | - | - |
| 1777515758 | 13.89° C | 83% | 1014.6 hPa | 0 mm | - | - | - |
| 1777515518 | 13.33° C | 84% | 1014.7 hPa | 0 mm | - | - | - |
| 1777515047 | 13.33° C | 86% | 1014.7 hPa | 0 mm | - | - | - |
| 1777514917 | 13.33° C | 86% | 1014.6 hPa | 0 mm | - | - | - |
| 1777513246 | 13.33° C | 90% | 1014.9 hPa | 0 mm | - | - | - |
| 1777511447 | 13.33° C | 91% | 1014.5 hPa | 0 mm | - | - | - |
| 1777511317 | 13.33° C | 91% | 1014.6 hPa | 0 mm | - | - | - |
| 1777511084 | 13.33° C | 91% | 1014.6 hPa | 0 mm | - | - | - |
* Rain latest hour (hover to see other rain measurements)
** Current wind speed in m/s (hover to see current wind gust speed)